Weather in Troitskoe

Russia / Vologda Oblast     60°19′50″N   37°42′29″E
temp.,
°C
wind,
m/s
gust,
m/s
humid.,
%
clouds,
%
prec.,
mm/h
press.,
hPa
HPBL,
m
8 may, sat
sat800:00+2s44905 0.0 100936
03:00+2se448931 0.0 101029
06:00+2se4692100 0.0 100955
09:00+5se71082100 0.0 1008121
12:00+6s81379100 0.1 1007216
15:00+5sse81394100 2.1 1007177
18:00+4sse5899100 5.2 1006131
21:00+4se5899100 9.9 1005123
9 may, sun
sun900:00+3e11100100 4.1 100421
03:00+3nnw71096100 6.7 1004147
06:00+2nw71091100 0.4 1006191
09:00+2nw81386100 0.4 1007283
12:00+4nw81170100 0.0 1010192
15:00+6nnw6105746 0.0 1012190
18:00+5nw576367 0.0 1015171
21:00+4wnw447563 0.0 101828
10 may, mon
mon1000:00+2w57831 0.0 102071
03:00+1wsw448331 0.0 102343
06:00+1ssw35835 0.0 102458
09:00+3s4679100 0.0 102572
12:00+5s577180 0.0 1024151
15:00+5sw7979100 0.0 1025158
18:00+4ssw579043 0.4 102676
21:00+5s6790100 0.4 102653
11 may, tue
tue1100:00+5s579218 0.0 102753
03:00+4s5598100 0.0 102744
06:00+4ssw4598100 0.0 102841
09:00+5ssw5596100 0.0 102845
12:00+7ssw578955 0.0 102990
15:00+8ssw578198 0.0 1028111
18:00+9ssw578267 0.0 102867
21:00+8s56925 0.0 102827
12 may, wed
wed1200:00+7s559690 0.0 102935
03:00+5s449948 0.0 103022
06:00+5sse339932 0.0 103019
09:00+7sse448924 0.0 103055
12:00+9sse347924 0.0 102996
15:00+10sse347316 0.0 1028107
18:00+11s33700 0.0 102746
21:00+10ssw33770 0.0 102711